Flag Weather past 2 weeks in Oulu, Finland

Now
36 °F

Overcast.


Feels Like: 30 °F
Forecast: 34 / 36 °F
Wind: 7 mph from Southwest

Location: Oulu Airport

Current Time: Nov 28, 2014 at 10:41:35 PM

Latest Report: Nov 28, 2014 at 10:20 PM


Visibility: N/A

Pressure: 30.39 "Hg

Humidity: 93%

Dew point: 34 °F

Location of OuluLocation

Historic Weather in Oulu — Graph

°F

Oulu temperature yesterday

Maximum temperature yesterday: 36 °F (at 12:50 AM)
Minimum temperature yesterday: 30 °F (at 6:20 PM)
Average temperature yesterday: 32 °F

Past Weeks' High & Low Weather Summary

 TemperatureHumidityPressure
High37 °F (Nov 18, 2:20 PM)100% (Nov 14, 12:20 AM)30.60 "Hg (Nov 14, 12:20 AM)
Low18 °F (Nov 13, 10:20 PM)80% (Nov 14, 7:20 PM)30.07 "Hg (Nov 25, 4:20 AM)
Average31 °F94%30.34 "Hg
* Reported Nov 13 9:20 PM — Nov 28 9:20 PM, Oulu, Weather by CustomWeather, © 2014

Note: Actual official high and low records may vary slightly from our data, if they occured in-between our weather recording intervals... More about our weather records

Advertising

Oulu weather history for previous 24 hours

 ConditionsComfort  
Time TempWeatherWind HumidityBarometerVisibility
9:20 PM
Nov 28
36 °FOvercast.8 mph93%30.39 "HgN/A
8:50 PM36 °FOvercast.7 mph93%30.39 "HgN/A
8:20 PM36 °FOvercast.8 mph93%30.39 "HgN/A
7:50 PM36 °FOvercast.8 mph93%30.39 "HgN/A
7:20 PM36 °FOvercast.7 mph93%30.36 "HgN/A
6:50 PM36 °FOvercast.7 mph93%30.36 "HgN/A
6:20 PM36 °FOvercast.8 mph93%30.36 "HgN/A
5:50 PM36 °FOvercast.7 mph93%30.36 "HgN/A
5:20 PM36 °FLow clouds.7 mph93%30.36 "HgN/A
4:50 PM36 °FLow clouds.7 mph93%30.36 "HgN/A
4:20 PM36 °FLow clouds.7 mph93%30.36 "HgN/A
3:50 PM36 °FLow clouds.8 mph93%30.36 "HgN/A
2:50 PM36 °FLow clouds.7 mph93%30.36 "HgN/A
2:20 PM36 °FLow clouds.7 mph93%30.33 "HgN/A
1:50 PM34 °FLow clouds.6 mph100%30.33 "HgN/A
1:20 PM34 °FLow clouds.5 mph100%30.36 "HgN/A
12:50 PM34 °FLow clouds.7 mph100%30.36 "HgN/A
11:50 AM34 °FLow clouds.8 mph100%30.33 "HgN/A
11:20 AM34 °FLow clouds.7 mph100%30.33 "HgN/A
10:50 AM34 °FLow clouds.7 mph100%30.33 "Hg4 mi
10:20 AM34 °FLow clouds.5 mph100%30.33 "HgN/A
9:50 AM34 °FLow clouds.6 mph93%30.33 "HgN/A
8:50 AM34 °FOvercast.7 mph93%30.30 "HgN/A
8:20 AM34 °FOvercast.7 mph93%30.30 "HgN/A
7:50 AM34 °FOvercast.7 mph93%30.30 "HgN/A
7:20 AM34 °FOvercast.8 mph93%30.30 "HgN/A
6:50 AM34 °FOvercast.8 mph93%30.30 "HgN/A
6:20 AM34 °FOvercast.8 mph93%30.27 "HgN/A
5:20 AM32 °FOvercast.7 mph100%30.27 "HgN/A
4:50 AM32 °FMostly cloudy.8 mph100%30.27 "HgN/A
4:20 AM32 °FLow clouds.8 mph100%30.27 "Hg6 mi
3:50 AM32 °FLow clouds.7 mph93%30.27 "Hg4 mi
3:20 AM30 °FLow clouds.7 mph100%30.27 "Hg4 mi
2:50 AM30 °FLow clouds.7 mph100%30.27 "Hg5 mi
2:20 AM30 °FMostly cloudy.7 mph93%30.27 "Hg5 mi
1:50 AM30 °FOvercast.6 mph93%30.27 "Hg6 mi
1:20 AM30 °FMostly cloudy.5 mph93%30.27 "Hg4 mi
12:50 AM30 °FOvercast.5 mph93%30.27 "HgN/A
12:20 AM30 °FLight snow. Overcast.6 mph93%30.27 "HgN/A
11:50 PM
Nov 27
30 °FLight snow. Overcast.5 mph93%30.27 "HgN/A
11:20 PM30 °FMostly cloudy.3 mph100%30.27 "HgN/A
10:50 PM30 °FLight snow. Mostly cloudy.6 mph100%30.27 "HgN/A
10:20 PM30 °FLight rain. Mostly cloudy.3 mph100%30.27 "Hg2 mi
Weather by CustomWeather, © 2014

See weather overviewHow to use our weather pages